Regional Weather Roundup
Issued by NWS Sterling, VA

Home | Current Version | Previous Version | Text Only | Print | Product List | Glossary On
Versions: 1 2 3 4 5 6 7 8 9 10 11 12 13 14 15 16 17 18 19 20 21 22 23 24 25 26 27 28
000
ASUS41 KLWX 182011
RWRLWX

REGIONAL WEATHER ROUNDUP
NATIONAL WEATHER SERVICE BALTIMORE MD/WASHINGTON DC
400 PM EDT FRI AUG 18 2017

Note: "FAIR" indicates few or no clouds below 12,000 feet
with no significant weather and/or obstructions to visibility.
 TC=TEMPERATURE CELSIUS

 * =Non NWS site. Station does not report precipitation (e.g. rain,
    snow, etc.), thunder, or fog.

DCZ001-MDZ009-015-VAZ040>042-051-053>054-182100-
WASHINGTON METRO

CITY           SKY/WX    TMP DP  RH WIND       PRES   REMARKS
WASHINGTON NAT PTSUNNY   90  80  72 S13       29.76F HX 107
DULLES         PTSUNNY   92  74  55 SW14      29.76F HX 101
ANDREWS AFB    MOSUNNY   90  75  61 S16       29.77F HX 100
FT BELVOIR     SUNNY     92  76  58 S8        29.76F HX 104
QUANTICO       PTSUNNY   89  81  77 S10       29.77F HX 108
COLLEGE PARK*  MOSUNNY   91  74  58 S7G16     29.75F HX 100
LEESBURG*      TSTM      79  77  94 N5        29.79R
MANASSAS*      MOSUNNY   92  76  59 SW10G17   29.77F HX 104
GAITHERSBURG*  PTSUNNY   89  76  65 SW5       29.78F HX 100

$$

MDZ006>007-011-014-182100-
BALTIMORE METRO

CITY           SKY/WX    TMP DP  RH WIND       PRES   REMARKS
BWI AIRPORT    PTSUNNY   90  77  65 S8        29.74F HX 103
MD SCIENCE CTR   N/A     89  79  72 MISG      29.74F HX 104
MARTIN STATE     N/A     88  82  84 SE14      29.77F HX 108
ANNAPOLIS      SUNNY     88  82  82 SE13      29.76F HX 108
FORT MEADE*      N/A     88  75  66 S9        29.77F HX  97

$$

MDZ012-015-019>023-182100-
MARYLAND EASTERN SHORE

CITY           SKY/WX    TMP DP  RH WIND       PRES   REMARKS
OCEAN CITY     MOSUNNY   82  79  90 S10G20    29.83F HX  92
SALISBURY      MOSUNNY   90  79  70 S14G24    29.80F HX 106
BAY BRIDGE AP* SUNNY     90  79  70 S15       29.76F HX 105
CAMBRIDGE*     PTSUNNY   88  81  79 S9G18     29.79F HX 105

$$

MDZ017>025-182100-
SOUTHERN MARYLAND

CITY           SKY/WX    TMP DP  RH WIND       PRES   REMARKS
PATUXENT RIVER MOSUNNY   90  79  70 S13       29.79F HX 106
ST INIGOES     SUNNY     91  80  70 S8        29.79F HX 109
LEONARDTOWN*   SUNNY     90  77  66 SW7       29.81F HX 102

$$

MDZ003>005-182100-
NORTH CENTRAL MARYLAND

CITY           SKY/WX    TMP DP  RH WIND       PRES   REMARKS
FREDERICK*     PTSUNNY   90  72  55 SW7       29.77F THUNDER HX  96
HAGERSTOWN APT PTSUNNY   85  73  67 NW13      29.79S HX  91
WESTMINSTER*   TSTM      81  79  94 W16G25    29.80R

$$

MDZ501>502-182100-
WESTERN MARYLAND

CITY           SKY/WX    TMP DP  RH WIND       PRES   REMARKS
OAKLAND*       MOSUNNY   72  66  83 W8        29.92F
CUMBERLAND*    MOSUNNY   84  72  65 S7        29.85F

$$

VAZ025>031-182100-
SHENANDOAH VALLEY

CITY           SKY/WX    TMP DP  RH WIND       PRES   REMARKS
WINCHESTER*    HVY RAIN  77  72  83 W14G22    29.83R
FRONT ROYAL*   CLOUDY    88  72  58 W6G16     29.79F HX  94
LURAY*         PTSUNNY   90  70  51 S12       29.81F HX  95
NEW MARKET*    CLOUDY    88  69  53 SW8       29.80F HX  92
STAUNTON*      CLOUDY    85  73  67 SW7       29.87F HX  91
WAYNESBORO*    PTSUNNY   88  73  61 SW12      29.86F HX  96

$$

WVZ021-048>050-054>055-182100-
EASTERN WEST VIRGINIA PANHANDLE

CITY           SKY/WX    TMP DP  RH WIND       PRES   REMARKS
MARTINSBURG    CLOUDY    78  73  84 SW6       29.79F
PETERSBURG*    CLOUDY    82  76  82 SE5       29.85F

$$

VAZ036>039-050-182100-
CENTRAL FOOTHILLS

CITY           SKY/WX    TMP DP  RH WIND       PRES   REMARKS
CHARLOTTESVILL CLOUDY    90  76  63 CALM      29.80F HX 101
CULPEPER*      PTSUNNY   94  74  51 W10       29.78F HX 104
ORANGE*        PTSUNNY   86  72  62 W10       29.80S HX  92
GORDONSVILLE*  CLOUDY    85  75  71 NW7       29.79S HX  94
WARRENTON*     MOSUNNY   96  71  43 S8        29.77F HX 103

$$

VAZ055>057-182100-
NORTH AND CENTRAL PIEDMONT

CITY           SKY/WX    TMP DP  RH WIND       PRES   REMARKS
FREDERICKSBRG* MOSUNNY   94  76  54 S10       29.77F HX 107
STAFFORD*      MOSUNNY   92  75  58 S8        29.82F HX 103

$$

NCZ024-NYZ072-PAZ021-071-VAZ022-071-182100-
OTHER REGIONAL OBSERVATIONS

CITY           SKY/WX    TMP DP  RH WIND       PRES   REMARKS
NEW YORK CITY  CLOUDY    81  77  88 CALM      29.82F
PHILADELPHIA   PTSUNNY   89  77  67 S9        29.76F HX 101
PITTSBURGH     MOSUNNY   84  65  52 W14G21    29.83S
ROANOKE        MOSUNNY   92  69  47 NW14      29.89S HX  97
RICHMOND       PTSUNNY   91  77  63 S13       29.81F HX 104
RALEIGH        MOSUNNY   97  72  44 SW14      29.85F HX 105

$$

ANZ530>537-182100-
MARINE OBSERVATIONS

STATION/POSITION TIME  TEMP    WIND        PRES
                       AIR SEA DIR/SP/G
                 (UTC) (F)     (DEG/KT/KT) (MB)
THOMAS PT LIGHT  2000   83 81  170/ 19/ 20   N/A
BALT KEY BRIDGE  1942   85     130/ 10/ 13 1007.2F
COVE POINT       1942   81     170/ 15/ 16 1009.4F
LEWISETTA        1942   89 85  210/ 13/ 15 1008.8F
SOLOMONS ISLAND  1942   88 81  170/ 12/ 14   N/A
PINEY POINT      1942          210/  8/  9   N/A

$$





USA.gov is the U.S. government's official web portal to all federal, state and local government web resources and services.